When you browse on this site, cookies collect data to enhance your experience and personalize the content and advertising you see.
Visit our Privacy Policy to learn more. By continuing to use the site, you agree to this use of cookies and data.
  • In Spain
  • List of Countries
  • For 7 days
  • Water Temperature
  • Satellite Maps
  • Weather Map
  • Weather Widgets
  • user-avatar
    Login

    Hourly Weather Sarh

    Today, 19 June, Wednesday

    Time Temperature Precipitation Wind Pressure Humidity
    00:00 +27°C° 0 mm 1 mps 728 mmHg 74%
    01:00 +26°C° 0 mm 2 mps 728 mmHg 74%
    02:00 +26°C° 0.1 mm 2 mps 728 mmHg 75%
    03:00 +26°C° 0.1 mm 2 mps 728 mmHg 76%
    04:00 +26°C° 0.1 mm 2 mps 728 mmHg 77%
    05:00 +27°C° 0 mm 1 mps 728 mmHg 78%
    06:00 +27°C° 0 mm 1 mps 729 mmHg 79%
    07:00 +27°C° 0 mm 1 mps 729 mmHg 80%
    08:00 +26°C° 0.7 mm 2 mps 729 mmHg 81%
    09:00 +26°C° 0.7 mm 3 mps 729 mmHg 83%
    10:00 +25°C° 0.7 mm 4 mps 730 mmHg 85%
    11:00 +26°C° 0 mm 3 mps 729 mmHg 80%
    12:00 +28°C° 0 mm 2 mps 728 mmHg 75%
    13:00 +29°C° 0 mm 1 mps 727 mmHg 70%
    14:00 +29°C° 0 mm 1 mps 727 mmHg 67%
    15:00 +30°C° 0 mm 2 mps 727 mmHg 64%
    16:00 +31°C° 0 mm 2 mps 726 mmHg 62%
    17:00 +30°C° 0 mm 1 mps 726 mmHg 66%
    18:00 +28°C° 0 mm 1 mps 727 mmHg 71%
    19:00 +25°C° 0 mm 0 mps 727 mmHg 75%
    20:00 +25°C° 0 mm 0 mps 727 mmHg 76%
    21:00 +25°C° 0 mm 0 mps 728 mmHg 77%
    22:00 +27°C° 0 mm 1 mps 728 mmHg 78%
    23:00 +26°C° 0 mm 1 mps 728 mmHg 80%

    Tomorrow, 20 June, Thursday

    Time Temperature Precipitation Wind Pressure Humidity
    00:00 +26°C° 0 mm 1 mps 728 mmHg 82%
    01:00 +26°C° 0 mm 1 mps 728 mmHg 84%
    02:00 +26°C° 0 mm 1 mps 728 mmHg 85%
    03:00 +25°C° 0 mm 1 mps 728 mmHg 87%
    04:00 +25°C° 0 mm 1 mps 727 mmHg 89%
    05:00 +26°C° 0 mm 1 mps 728 mmHg 86%
    06:00 +26°C° 0 mm 1 mps 728 mmHg 82%
    07:00 +27°C° 0 mm 2 mps 728 mmHg 79%
    08:00 +29°C° 0 mm 2 mps 728 mmHg 71%
    09:00 +31°C° 0 mm 2 mps 729 mmHg 64%
    10:00 +34°C° 0 mm 2 mps 729 mmHg 57%
    11:00 +35°C° 0 mm 2 mps 728 mmHg 52%
    12:00 +36°C° 0 mm 2 mps 728 mmHg 47%
    13:00 +37°C° 0 mm 2 mps 727 mmHg 43%
    14:00 +37°C° 0 mm 2 mps 726 mmHg 42%
    15:00 +36°C° 0 mm 1 mps 726 mmHg 42%
    16:00 +36°C° 0 mm 1 mps 726 mmHg 42%
    17:00 +34°C° 0 mm 1 mps 726 mmHg 47%
    18:00 +33°C° 0 mm 1 mps 726 mmHg 53%
    19:00 +31°C° 0 mm 1 mps 727 mmHg 58%
    20:00 +30°C° 0 mm 1 mps 727 mmHg 63%
    21:00 +29°C° 0 mm 2 mps 727 mmHg 68%
    22:00 +28°C° 0 mm 2 mps 727 mmHg 74%
    23:00 +28°C° 0.2 mm 2 mps 727 mmHg 75%

    Day after tomorrow, 21 June, Friday

    Time Temperature Precipitation Wind Pressure Humidity
    00:00 +28°C° 0.2 mm 2 mps 727 mmHg 77%
    01:00 +27°C° 0.2 mm 1 mps 727 mmHg 79%
    02:00 +27°C° 0.1 mm 1 mps 727 mmHg 80%
    03:00 +26°C° 0.1 mm 2 mps 727 mmHg 82%
    04:00 +26°C° 0.1 mm 2 mps 727 mmHg 84%
    05:00 +26°C° 0 mm 2 mps 728 mmHg 83%
    06:00 +27°C° 0 mm 2 mps 728 mmHg 81%
    07:00 +27°C° 0 mm 2 mps 729 mmHg 80%
    08:00 +29°C° 0 mm 2 mps 729 mmHg 74%
    09:00 +31°C° 0 mm 2 mps 729 mmHg 68%
    10:00 +33°C° 0 mm 3 mps 729 mmHg 62%
    11:00 +35°C° 0 mm 3 mps 728 mmHg 56%
    12:00 +36°C° 0 mm 3 mps 728 mmHg 51%
    13:00 +38°C° 0 mm 2 mps 727 mmHg 45%
    14:00 +37°C° 0 mm 2 mps 726 mmHg 46%
    15:00 +37°C° 0 mm 2 mps 726 mmHg 46%
    16:00 +37°C° 0 mm 2 mps 725 mmHg 47%
    17:00 +35°C° 0 mm 2 mps 725 mmHg 54%
    18:00 +32°C° 0 mm 2 mps 726 mmHg 61%
    19:00 +30°C° 0 mm 2 mps 726 mmHg 67%
    20:00 +30°C° 0 mm 2 mps 727 mmHg 69%
    21:00 +29°C° 0 mm 3 mps 727 mmHg 71%
    22:00 +29°C° 0 mm 3 mps 728 mmHg 73%
    23:00 +28°C° 1.1 mm 2 mps 727 mmHg 77%

    22 June, Saturday

    Time Temperature Precipitation Wind Pressure Humidity
    00:00 +27°C° 1.1 mm 2 mps 727 mmHg 82%
    01:00 +26°C° 1.1 mm 1 mps 727 mmHg 87%
    02:00 +26°C° 0.8 mm 1 mps 727 mmHg 88%
    03:00 +25°C° 0.8 mm 2 mps 727 mmHg 89%
    04:00 +25°C° 0.8 mm 2 mps 727 mmHg 91%
    05:00 +25°C° 0.7 mm 2 mps 727 mmHg 89%
    06:00 +26°C° 0.7 mm 2 mps 728 mmHg 87%
    07:00 +26°C° 0.7 mm 2 mps 728 mmHg 85%
    08:00 +27°C° 0 mm 2 mps 728 mmHg 81%
    09:00 +29°C° 0 mm 2 mps 728 mmHg 76%
    10:00 +30°C° 0 mm 2 mps 728 mmHg 71%
    11:00 +28°C° 0 mm 3 mps 728 mmHg 72%
    12:00 +30°C° 0 mm 3 mps 728 mmHg 65%
    13:00 +31°C° 0 mm 3 mps 727 mmHg 57%
    14:00 +32°C° 0 mm 2 mps 726 mmHg 56%
    15:00 +32°C° 0 mm 2 mps 726 mmHg 55%
    16:00 +33°C° 0 mm 1 mps 725 mmHg 55%
    17:00 +31°C° 0 mm 1 mps 726 mmHg 60%
    18:00 +30°C° 0 mm 1 mps 726 mmHg 65%
    19:00 +28°C° 0 mm 1 mps 726 mmHg 71%
    20:00 +28°C° 0 mm 1 mps 726 mmHg 73%
    21:00 +27°C° 0 mm 1 mps 727 mmHg 75%
    22:00 +27°C° 0 mm 2 mps 727 mmHg 77%
    23:00 +26°C° 0 mm 2 mps 727 mmHg 79%

    23 June, Sunday

    Time Temperature Precipitation Wind Pressure Humidity
    00:00 +26°C° 0 mm 2 mps 727 mmHg 80%
    01:00 +25°C° 0 mm 2 mps 726 mmHg 82%
    02:00 +25°C° 0 mm 2 mps 726 mmHg 83%
    03:00 +25°C° 0 mm 2 mps 726 mmHg 84%
    04:00 +25°C° 0 mm 2 mps 727 mmHg 86%
    05:00 +25°C° 0.1 mm 2 mps 727 mmHg 86%
    06:00 +26°C° 0.1 mm 3 mps 727 mmHg 86%
    07:00 +26°C° 0.1 mm 3 mps 727 mmHg 86%
    08:00 +28°C° 0 mm 4 mps 728 mmHg 78%
    09:00 +29°C° 0 mm 4 mps 728 mmHg 71%
    10:00 +32°C° 0 mm 4 mps 728 mmHg 64%
    11:00 +33°C° 0 mm 3 mps 727 mmHg 59%
    12:00 +35°C° 0 mm 3 mps 727 mmHg 55%
    13:00 +36°C° 0 mm 3 mps 726 mmHg 51%
    14:00 +36°C° 0 mm 2 mps 726 mmHg 50%
    15:00 +36°C° 0 mm 2 mps 725 mmHg 50%
    16:00 +36°C° 0 mm 2 mps 725 mmHg 50%
    17:00 +34°C° 0.1 mm 1 mps 725 mmHg 55%
    18:00 +32°C° 0.1 mm 1 mps 725 mmHg 60%
    19:00 +31°C° 0.1 mm 1 mps 725 mmHg 66%
    20:00 +30°C° 1.1 mm 1 mps 726 mmHg 71%
    21:00 +28°C° 1.1 mm 1 mps 726 mmHg 77%
    22:00 +27°C° 1.1 mm 2 mps 726 mmHg 82%
    23:00 +27°C° 1.5 mm 2 mps 726 mmHg 85%

    24 June, Monday

    Time Temperature Precipitation Wind Pressure Humidity
    00:00 +26°C° 1.5 mm 2 mps 726 mmHg 87%
    01:00 +26°C° 1.5 mm 2 mps 726 mmHg 90%
    02:00 +26°C° 0.5 mm 2 mps 726 mmHg 91%
    03:00 +25°C° 0.5 mm 2 mps 727 mmHg 92%
    04:00 +25°C° 0.5 mm 2 mps 727 mmHg 93%
    05:00 +25°C° 1.1 mm 2 mps 727 mmHg 93%
    06:00 +25°C° 1.1 mm 2 mps 727 mmHg 92%
    07:00 +25°C° 1.1 mm 2 mps 728 mmHg 92%
    08:00 +25°C° 1.5 mm 3 mps 728 mmHg 90%
    09:00 +26°C° 1.5 mm 4 mps 728 mmHg 88%
    10:00 +26°C° 1.5 mm 6 mps 728 mmHg 86%
    11:00 +27°C° 0 mm 5 mps 727 mmHg 81%
    12:00 +28°C° 0 mm 4 mps 727 mmHg 76%
    13:00 +29°C° 0 mm 3 mps 726 mmHg 71%
    14:00 +30°C° 0 mm 2 mps 726 mmHg 68%
    15:00 +30°C° 0 mm 1 mps 726 mmHg 65%
    16:00 +31°C° 0 mm 1 mps 725 mmHg 63%
    17:00 +30°C° 0 mm 1 mps 726 mmHg 67%
    18:00 +29°C° 0 mm 1 mps 726 mmHg 72%
    19:00 +27°C° 0 mm 1 mps 726 mmHg 77%
    20:00 +25°C° 0.1 mm 0 mps 726 mmHg 79%
    21:00 +24°C° 0.1 mm 0 mps 727 mmHg 81%
    22:00 +24°C° 0.1 mm 0 mps 727 mmHg 83%
    23:00 +24°C° 0.1 mm 0 mps 727 mmHg 85%
    Show more